Location: Newark
(16.3678°N, 77.8722°E)
Time: 02:12:29
(UTC+00:00)

Tiros 1 - Pass Details

Date: 14 December 2019
Orbit: 630 x 664 km, 48.4° (Epoch: 28 January)

Event Time Altitude Azimuth Distance (km) Brightness Sun altitude
Rises 21:46:06 0° 239° (WSW) 2,980 - -46.6°
Reaches altitude 10° 21:48:36 10° 247° (WSW) 2,065 - -46.0°
Maximum altitude 21:53:00 36° 314° (NW) 1,029 - -45.0°
Drops below altitude 10° 21:57:22 10° 21° (NNE) 2,051 - -44.0°
Sets 21:59:51 0° 30° (NNE) 2,956 - -43.5°
